Location: Lane
(33.5226°N, 79.8788°W)
Time: 17:46:00
(UTC+00:00)

Transit 2A - Pass Details

Date: 03 October 2022
Orbit: 598 x 959 km, 66.7° (Epoch: 06 December)

Event Time Altitude Azimuth Distance (km) Brightness Sun altitude
Rises 03:49:19 0° 208° (SSW) 2,987 - -55.1°
Reaches altitude 10° 03:51:41 10° 209° (SSW) 2,034 - -55.4°
Maximum altitude 03:56:13 78° 295° (WNW) 633 - -55.9°
Drops below altitude 10° 04:00:33 10° 23° (NNE) 1,944 - -56.4°
Sets 04:02:46 0° 25° (NNE) 2,843 - -56.7°
